Location: Conway
(43.9790°N, 71.1210°W)
Time: 08:53:53
(UTC-04:00)

Envisat - Visible Passes

Search period start: 19 October 2019 00:00
Search period end: 29 October 2019 00:00
Orbit: 764 x 766 km, 98.1° (Epoch: 19 October)

Date Brightness Start Highest point End Pass type
(mag) Time Alt. Az. Time Alt. Az. Time Alt. Az.
19 Oct 6.5 06:16:01 10° ENE 06:17:55 12° E 06:19:48 10° ESE visible
19 Oct 3.7 19:08:28 10° S 19:13:26 57° W 19:18:28 10° NNW visible
20 Oct 3.0 18:31:38 10° SSE 18:36:40 68° ENE 18:41:44 10° N visible
20 Oct 6.0 20:13:14 10° SW 20:16:11 15° W 20:19:08 10° NW visible
21 Oct 4.8 19:34:31 10° SSW 19:39:04 33° W 19:43:38 10° NNW visible
22 Oct 3.3 18:57:06 10° S 19:02:09 71° WSW 19:07:15 10° NNW visible
23 Oct 3.1 18:20:31 10° SSE 18:25:26 54° ENE 18:30:24 10° N visible
23 Oct 5.7 20:01:12 10° SW 20:04:47 19° W 20:08:25 10° NW visible
24 Oct 6.1 06:29:06 10° NE 06:32:21 17° E 06:35:34 10° SE visible
24 Oct 4.3 19:22:58 10° SSW 19:27:44 41° W 19:32:33 10° NNW visible
25 Oct 3.0 18:45:48 10° SSE 18:50:53 89° WSW 18:56:00 10° NNW visible
25 Oct 6.2 20:29:26 10° W 20:30:37 11° W 20:31:49 10° WNW visible
26 Oct 3.3 18:09:28 10° SE 18:14:13 43° ENE 18:19:02 10° N visible
26 Oct 5.3 19:49:21 10° SSW 19:53:25 24° W 19:57:31 10° NW visible
27 Oct 6.3 06:18:34 10° ENE 06:20:56 13° E 06:23:18 10° ESE visible
27 Oct 3.9 19:11:29 10° S 19:16:25 52° W 19:21:24 10° NNW visible
28 Oct 2.9 18:34:34 10° SSE 18:39:38 74° ENE 18:44:43 10° N visible
28 Oct 6.0 20:16:36 10° WSW 20:19:12 14° W 20:21:49 10° WNW visible
